User: anonymous   Login
Location: Unspecified
(0.0000°N, 0.0000°E)
Time: 08:15:03
(UTC+00:00)
Language:

AO-92 - Orbit

View from above orbital plane
View from above orbital plane
View from above satellite
View from above satellite

Ground track
Ground track

The orbit data is extracted from the following two-line orbital elements,

1 43137U 18004AC  19018.47880871  .00000708  00000-0  33003-4 0  9991
2 43137  97.5079  86.4921 0010925  70.7487 289.4931 15.23143801 56473
Epoch (UTC): 18 January 2019 11:29:29
Eccentricity: 0.0010925
inclination: 97.5079°
perigee height: 489 km
apogee height: 504 km
right ascension of ascending node: 86.4921°
argument of perigee: 70.7487°
revolutions per day: 15.23143801
mean anomaly at epoch: 289.4931°
orbit number at epoch: 5647

The dashed part of the orbit path shows where the satellite is in the earth's shadow,  

DLR